179P/Jedicke (2022)

Japanese version
Home page
Updated on January 29, 2023

---------------------------------------------------------------------

* Profile

* Pictures

* Orbital Elements

Epoch 2022 Aug. 9.0 TT = JDT 2459800.5
T 2022 May 30.46763 TT                                  Rudenko
q   4.1177562            (2000.0)            P               Q
n   0.06821546     Peri.  296.94104     +0.56136520     -0.76845354
a   5.9321779      Node   115.51301     +0.82709812     +0.50846161
e   0.3058610      Incl.   19.89820     +0.02788915     +0.38851763
P  14.4
From 233 observations 2006 Oct. 22-2022 Oct. 4, mean residual 0".7.

* Magnitudes Graph

        m1 = 3.0 + 5 log d + 20.0 log r

---------------------------------------------------------------------

The orbital elements are published on M.P.E.C. 2022-T100.
The magnitudes graphs are made with Comet for Windows.

---------------------------------------------------------------------

Copyright(C) Seiichi Yoshida (comet@aerith.net). All rights reserved.